This demonstration page uses our WeatherBlox Daily Observations layout. Learn more.

Left ArrowRight Arrow

Hourly Observations for April 6, 2022

Temp ( °F °C ) Dew Point ( °F °C ) Humidity (%) Winds ( mph kmh ) Pressure ( in mb ) Visibility ( mi km ) Precip ( " mm )
12:51 am 00:51 Cloudy with Light Rain 45 7.2 42 5.6 90 90 NE 7 11 29.92 1013 5 8 0.01 0.25
1:51 am 01:51 Cloudy with Light Rain 45 7.2 42 5.6 90 90 NE 9 15 29.89 1012 3 5 0.03 0.76
2:51 am 02:51 Cloudy with Light Rain 45 7.2 42 5.6 90 90 NE 8 13 29.85 1011 3 5 0.01 0.25
3:51 am 03:51 Cloudy with Light Rain 45 7.2 42 5.6 90 90 ENE 12 19 29.83 1010 3 5 0.06 1.52
4:51 am 04:51 Cloudy with Light Rain 45 7.2 43 6.1 93 93 E 10 17 29.80 1009 3 5 0.09 2.29
5:03 am 05:03 Cloudy with Light Rain 45 7 43 6 93 93 E 12 19 29.80 1009 2 3 0.00 0.00
5:51 am 05:51 Cloudy with Light Rain 45 7.2 43 6.1 93 93 NE 9 15 29.78 1008 2 3 0.03 0.76
6:33 am 06:33 Cloudy with Light Rain 46 7.8 43 6.1 89 89 NE 10 17 29.76 1008 4 6 0.02 0.51
6:51 am 06:51 Cloudy with Light Rain 46 7.8 43 6.1 89 89 NE 13 20 29.76 1008 4 6 0.02 0.51
7:51 am 07:51 Cloudy with Light Rain 47 8.3 44 6.7 90 90 NE 12 19 29.75 1008 4 6 0.06 1.52
8:51 am 08:51 Cloudy with Light Rain 48 8.9 46 7.8 93 93 NE 8 13 29.76 1008 4 6 0.04 1.02
9:51 am 09:51 Cloudy with Light Rain 49 9.4 46 7.8 90 90 NE 8 13 29.77 1008 5 8 0.03 0.76
10:51 am 10:51 Cloudy with Light Rain 49 9.4 47 8.3 93 93 NNE 10 17 29.79 1009 5 8 0.04 1.02
11:51 am 11:51 Cloudy with Light Rain 50 10 48 8.9 93 93 NE 12 19 29.76 1008 7 11 0.01 0.25
12:37 pm 12:37 Cloudy 51 10.6 47 8.3 86 86 ENE 14 22 29.76 1008 10 16 0.00 0.00
12:51 pm 12:51 Cloudy 51 10.6 46 7.8 83 83 ENE 15 24 29.78 1008 10 16 0.00 0.00
1:51 pm 13:51 Cloudy with Mist and Fog 51 10.6 46 7.8 83 83 NE 9 15 29.80 1009 5 8 0.00 0.00
2:10 pm 14:10 Cloudy with Mist and Fog 50 10 46 7.8 86 86 N 8 13 29.83 1010 7 11 0.00 0.00
2:43 pm 14:43 Cloudy with Light Rain 50 10 48 8.9 93 93 NNE 5 7 29.84 1011 2 3 0.02 0.51
2:51 pm 14:51 Cloudy with Light Rain 50 10 48 8.9 93 93 NNE 8 13 29.83 1010 2 3 0.04 1.02
3:41 pm 15:41 Mostly Cloudy with Drizzle 51 10.6 48 8.9 89 89 NNE 8 13 29.81 1009 4 6 0.01 0.25
3:51 pm 15:51 Mostly Cloudy with Drizzle 51 10.6 49 9.4 92 92 NE 10 17 29.80 1009 4 6 0.01 0.25
4:05 pm 16:05 Cloudy 51 10.6 48 8.9 89 89 NE 9 15 29.79 1009 10 16 0.00 0.00
4:51 pm 16:51 Cloudy 51 10.6 48 8.9 89 89 NNE 7 11 29.81 1010 10 16 0.00 0.00
5:06 pm 17:06 Cloudy 52 11.1 47 8.3 83 83 NNE 8 13 29.82 1010 10 16 0.00 0.00
5:21 pm 17:21 Cloudy 52 11.1 47 8.3 83 83 NE 9 15 29.81 1009 10 16 0.00 0.00
5:44 pm 17:44 Cloudy 52 11.1 47 8.3 83 83 NE 7 11 29.81 1009 10 16 0.00 0.00
5:51 pm 17:51 Cloudy 52 11.1 47 8.3 83 83 NE 7 11 29.82 1010 10 16 0.00 0.00
6:34 pm 18:34 Cloudy 52 11.1 47 8.3 83 83 Calm 29.84 1011 10 16 0.00 0.00
6:51 pm 18:51 Cloudy 51 10.6 47 8.3 86 86 ESE 8 13 29.85 1011 10 16 0.00 0.00
7:51 pm 19:51 Cloudy with Drizzle 50 10 45 7.2 83 83 E 3 6 29.89 1012 8 13 0.00 0.00
8:51 pm 20:51 Cloudy with Drizzle 50 10 46 7.8 86 86 E 3 6 29.90 1013 10 16 0.00 0.00
9:04 pm 21:04 Cloudy with Drizzle 50 10 46 7.8 86 86 E 3 6 29.91 1013 10 16 0.00 0.00
9:51 pm 21:51 Mostly Cloudy with Mist and Fog 49 9.4 46 7.8 90 90 E 3 6 29.92 1013 5 8 0.00 0.00
10:08 pm 22:08 Mostly Cloudy with Light Rain 49 9.4 46 7.8 90 90 E 6 9 29.91 1013 7 11 0.00 0.00
10:51 pm 22:51 Mostly Cloudy 48 8.9 45 7.2 89 89 E 7 11 29.90 1012 9 14 0.00 0.00
10:55 pm 22:55 Cloudy 48 8.9 45 7.2 89 89 E 6 9 29.90 1013 10 16 0.00 0.00
11:51 pm 23:51 Cloudy 48 8.9 45 7.2 89 89 E 7 11 29.91 1013 10 16 0.00 0.00

Powered by AerisWeather